Regional Weather Roundup
Issued by NWS

Home | Current Version | Previous Version | Text Only | Print | Product List | Glossary Off
Versions: 1 2 3 4 5 6 7 8 9 10 11 12 13 14 15 16 17 18 19 20 21 22 23 24 25 26 27 28 29 30 31 32 33 34 35 36 37 38 39 40 41 42 43 44 45 46 47 48 49 50

000
ASUS43 KOAX 301502
RWRNE

WEATHER ROUNDUP FOR NEBRASKA
NATIONAL WEATHER SERVICE OMAHA NE
1000 AM CDT MON MAY 30 2016

NOTES: SATELLITE DATA IS BEING USED TO AUGMENT CLOUD COVER ABOVE
       12000 FEET.
       "FAIR" INDICATES FEW OR NO CLOUDS BELOW 12,000 FEET WITH NO
       SIGNIFICANT WEATHER AND/OR OBSTRUCTIONS TO VISIBILITY.

  * THESE STATIONS DO NOT REPORT WEATHER SUCH AS RAIN...SNOW OR FOG.

NEZ001>004-019>022-054>056-301600-
NEBRASKA PANHANDLE

CITY           SKY/WX    TMP DP  RH WIND       PRES   REMARKS
SCOTTSBLUFF    SUNNY     67  49  52 VRB5      29.98S
ALLIANCE       SUNNY     68  51  54 SW13      29.96F
CHADRON        MOSUNNY   68  50  52 SW8       29.92S
SIDNEY         SUNNY     67  51  56 W7        30.01F
$$

NEZ057>060-069>072-079>082-301600-
SOUTHWEST NEBRASKA

CITY           SKY/WX    TMP DP  RH WIND       PRES   REMARKS
NORTH PLATTE   MOSUNNY   67  56  67 SE6       30.01S
IMPERIAL       SUNNY     66  54  65 SE5       30.00F
LEXINGTON      MOSUNNY   70  57  64 S3        30.00F
MCCOOK         SUNNY     70  53  54 S9        30.00S
$$

NEZ005>010-023>029-035>040-094-301600-
NORTH CENTRAL NEBRASKA

CITY           SKY/WX    TMP DP  RH WIND       PRES   REMARKS
VALENTINE      MOSUNNY   68  52  56 S12       29.96S
AINSWORTH      SUNNY     69  56  63 SE9       29.98F
BROKEN BOW     SUNNY     67  56  67 CALM      30.00F
ORD            MOSUNNY   70  58  65 S3        29.98F
$$

NEZ041-046>049-061>064-073>077-083>087-301600-
SOUTH CENTRAL NEBRASKA

CITY           SKY/WX    TMP DP  RH WIND       PRES   REMARKS
GRAND ISLAND   PTSUNNY   68  57  68 E5        30.00F
HASTINGS       PTSUNNY   68  60  75 SE5       30.00F
KEARNEY *      MOSUNNY   73  55  53 SE6       30.01R
YORK           CLOUDY    68  59  73 S7        30.01F
$$

NEZ011>018-030>034-042>045-301600-
NORTHEAST NEBRASKA

CITY           SKY/WX    TMP DP  RH WIND       PRES   REMARKS
NORFOLK        MOSUNNY   73  58  59 SE7       30.00S
ALBION         PTSUNNY   70  57  63 SE6       30.00F
BLAIR          MOSUNNY   78  59  52 SE7       30.00F
FREMONT        SUNNY     77  56  49 SE5       30.01R
TEKAMAH        MOSUNNY   78  59  51 SE7       29.99F
$$

NEZ050>053-065>068-078-088>093-301600-
SOUTHEAST NEBRASKA

CITY           SKY/WX    TMP DP  RH WIND       PRES   REMARKS
LINCOLN        CLOUDY    74  62  66 SE5       30.02S
OMAHA EPPLEY   PTSUNNY   75  64  68 S7        30.00S
FALLS CITY     SUNNY     79  66  64 S6        30.00F
PLATTSMOUTH    MOSUNNY   76  64  65 CALM      30.01F
$$

NEZ044-045-051>053-067-301600-
OMAHA AREA

CITY           SKY/WX    TMP DP  RH WIND       PRES   REMARKS
OMAHA EPPLEY   PTSUNNY   75  64  68 S7        30.00S
BLAIR          MOSUNNY   78  59  52 SE7       30.00F
FREMONT        SUNNY     77  56  49 SE5       30.01R
OFFUTT AFB     MOSUNNY   75  61  61 S5        30.00F
PLATTSMOUTH    MOSUNNY   76  64  65 CALM      30.01F
$$



USA.gov is the U.S. government's official web portal to all federal, state and local government web resources and services.